Location: *
(41.0833°N, 73.4167°W)
Time: 02:53:32
(UTC+00:00)

RESURS DK-1 - Pass Details

Date: 22 October 2019
Orbit: 558 x 560 km, 69.9° (Epoch: 14 November)

Event Time Altitude Azimuth Distance (km) Brightness Sun altitude
Exits shadow 10:08:06 20° 279° (W) 1,317 3.6 -12.9°
Maximum altitude 10:09:17 23° 305° (NW) 1,219 3.6 -12.6°
Drops below altitude 10° 10:12:36 10° 358° (N) 1,851 4.9 -12.0°
Sets 10:15:11 0° 13° (NNE) 2,750 6.0 -11.5°
